Погода в Бялогарде

Польша     54°00′49″N   15°58′04″E
темп.,
°C
ветер,
м/с
пор.,
м/с
влажн.,
%
обл.,
%
осадки,
мм/ч
давл.,
гПа
погр.,
м
3 марта, ср
ср301:00+1юз12870 0.0 103222
04:00+1юз22880 0.0 103022
07:00+1юз22820 0.0 102922
10:00+7юз24620 0.0 1028266
13:00+10юз34560 0.0 1026484
16:00+10юз25670 0.0 1022356
19:00+6юз36830 0.0 1020105
22:00+5зюз48920 0.0 1018159
4 марта, чт
чт401:00+6з4109233 0.0 1017424
04:00+4зсз6109367 0.0 1014545
07:00+2зсз698784 0.0 1014778
10:00+3зсз5881100 0.1 1014829
13:00+4сз4678100 0.3 1015695
16:00+1ссв61094100 0.1 1015596
19:00−1ссв378389 0.3 1016266
22:00−1ссв37820 0.0 1018247
5 марта, пт
пт501:00−1с22805 0.0 101943
04:00−1зсз23740 0.0 101968
07:00−1зсз35760 0.0 1020114
10:00+3ссз56560 0.2 10211140
13:00+3ссз675433 0.6 10231366
16:00+1ссз676112 0.1 10231221
19:00−2ссз237813 0.1 102668
22:00−2юз01754 0.0 102821
6 марта, сб
сб601:00−2зюз237131 0.0 102962
04:00−2з23640 0.0 102940
07:00−1з34650 0.0 103089
10:00+3з574947 0.0 10301232
13:00+4з793924 0.0 10291469
16:00+3з6114665 0.0 10271313
19:00+1зюз5136281 0.0 1026695
22:00+1з7147799 0.0 1025889
7 марта, вс
вс701:00+2з7137599 0.1 10231054
04:00+1з81383100 0.1 10211029
07:00+1з71379100 0.1 1020894
10:00+2з81279100 0.0 1020950
13:00+3з81280100 0.1 1019999
16:00+2з81278100 0.1 10171110
19:00+1з71295100 0.2 1015769
22:00+1з71393100 0.1 1015750